Location: Home
(42.5358°N, 72.7383°W)
Time: 05:39:59
(UTC-05:00)

Courier 1B - Pass Details

Date: 05 December 2021
Orbit: 962 x 1209 km, 28.3° (Epoch: 25 January)

Event Time Altitude Azimuth Distance (km) Brightness Sun altitude
Rises 14:54:51 0° 216° (SW) 4,084 12.8 11.2°
Reaches altitude 10° 14:58:54 10° 198° (SSW) 3,097 11.5 10.7°
Maximum altitude 15:03:28 17° 161° (SSE) 2,570 10.1 10.1°
Drops below altitude 10° 15:07:56 10° 124° (ESE) 3,012 10.0 9.5°
Sets 15:11:46 0° 105° (ESE) 3,924 10.3 9.0°
